Location: Maiden
(35.5760°N, 81.2120°W)
Time: 06:23:42
(UTC-04:00)

Hubble Space Telescope - Visible Passes

Search period start: 02 July 2020 00:00
Search period end: 12 July 2020 00:00
Orbit: 536 x 540 km, 28.5° (Epoch: 01 July)

Date Brightness Start Highest point End Pass type
(mag) Time Alt. Az. Time Alt. Az. Time Alt. Az.
02 Jul 2.0 04:56:25 22° SSW 04:57:19 24° SSW 05:00:38 10° SE visible
03 Jul 2.2 04:46:49 21° S 04:46:49 21° S 04:49:42 10° SE visible
04 Jul 2.7 04:37:28 15° SSE 04:37:28 15° SSE 04:38:40 10° SSE visible
07 Jul 3.3 22:47:17 10° SW 22:47:25 11° SW 22:47:25 11° SW visible
08 Jul 2.6 22:36:22 10° SW 22:37:58 18° SSW 22:37:58 18° SSW visible
09 Jul 2.0 22:25:30 10° SW 22:28:17 25° S 22:28:17 25° S visible
10 Jul 1.7 22:14:40 10° SW 22:18:15 29° S 22:18:25 28° S visible
11 Jul 1.7 22:03:52 10° WSW 22:07:29 30° S 22:08:25 27° SSE visible
